When you browse on this site, cookies collect data to enhance your experience and personalize the content and advertising you see.
Visit our Privacy Policy to learn more. By continuing to use the site, you agree to this use of cookies and data.
  • In Spain
  • List of Countries
  • For 7 days
  • Water Temperature
  • Satellite Maps
  • Weather Map
  • Weather Widgets
  • user-avatar
    Login

    Hourly Weather Benito Juarez

    Today, 16 December, Sunday

    Time Temperature Precipitation Wind Pressure Humidity
    00:00 +6°C° 0 mm 1 mps 586 mmHg 86%
    01:00 +6°C° 0 mm 1 mps 586 mmHg 86%
    02:00 +6°C° 0 mm 1 mps 585 mmHg 86%
    03:00 +5°C° 0 mm 1 mps 585 mmHg 86%
    04:00 +5°C° 0 mm 1 mps 585 mmHg 86%
    05:00 +5°C° 0 mm 1 mps 585 mmHg 86%
    06:00 +7°C° 0 mm 1 mps 586 mmHg 79%
    07:00 +8°C° 0 mm 1 mps 587 mmHg 71%
    08:00 +10°C° 0 mm 1 mps 588 mmHg 64%
    09:00 +11°C° 0 mm 1 mps 589 mmHg 58%
    10:00 +13°C° 0 mm 1 mps 589 mmHg 52%
    11:00 +14°C° 0 mm 2 mps 590 mmHg 47%
    12:00 +14°C° 0 mm 2 mps 589 mmHg 48%
    13:00 +15°C° 0 mm 2 mps 588 mmHg 50%
    14:00 +15°C° 0 mm 2 mps 588 mmHg 52%
    15:00 +13°C° 0 mm 1 mps 587 mmHg 61%
    16:00 +11°C° 0 mm 1 mps 586 mmHg 70%
    17:00 +9°C° 0 mm 1 mps 585 mmHg 80%
    18:00 +9°C° 0 mm 1 mps 586 mmHg 82%
    19:00 +8°C° 0 mm 1 mps 586 mmHg 85%
    20:00 +8°C° 0 mm 1 mps 586 mmHg 87%
    21:00 +8°C° 0 mm 1 mps 586 mmHg 87%
    22:00 +7°C° 0 mm 1 mps 586 mmHg 88%
    23:00 +7°C° 0 mm 1 mps 586 mmHg 88%

    Tomorrow, 17 December, Monday

    Time Temperature Precipitation Wind Pressure Humidity
    00:00 +7°C° 0 mm 1 mps 586 mmHg 88%
    01:00 +7°C° 0 mm 1 mps 585 mmHg 87%
    02:00 +6°C° 0 mm 0 mps 585 mmHg 87%
    03:00 +7°C° 0 mm 1 mps 585 mmHg 87%
    04:00 +6°C° 0 mm 1 mps 585 mmHg 87%
    05:00 +6°C° 0 mm 1 mps 584 mmHg 87%
    06:00 +8°C° 0 mm 1 mps 586 mmHg 81%
    07:00 +9°C° 0 mm 1 mps 587 mmHg 75%
    08:00 +11°C° 0 mm 1 mps 588 mmHg 69%
    09:00 +12°C° 0 mm 1 mps 588 mmHg 64%
    10:00 +14°C° 0 mm 1 mps 589 mmHg 58%
    11:00 +15°C° 0 mm 2 mps 589 mmHg 52%
    12:00 +15°C° 0 mm 2 mps 588 mmHg 53%
    13:00 +16°C° 0 mm 2 mps 588 mmHg 54%
    14:00 +16°C° 0 mm 2 mps 587 mmHg 55%
    15:00 +14°C° 0 mm 1 mps 586 mmHg 63%
    16:00 +13°C° 0 mm 1 mps 586 mmHg 71%
    17:00 +10°C° 0 mm 0 mps 585 mmHg 80%
    18:00 +10°C° 0 mm 1 mps 585 mmHg 82%
    19:00 +10°C° 0 mm 1 mps 585 mmHg 83%
    20:00 +9°C° 0 mm 1 mps 585 mmHg 85%
    21:00 +9°C° 0 mm 1 mps 585 mmHg 85%
    22:00 +9°C° 0 mm 1 mps 585 mmHg 84%
    23:00 +9°C° 0 mm 1 mps 585 mmHg 83%

    Day after tomorrow, 18 December, Tuesday

    Time Temperature Precipitation Wind Pressure Humidity
    00:00 +9°C° 0 mm 1 mps 584 mmHg 83%
    01:00 +9°C° 0 mm 1 mps 584 mmHg 83%
    02:00 +8°C° 0 mm 1 mps 583 mmHg 84%
    03:00 +8°C° 0 mm 1 mps 583 mmHg 84%
    04:00 +8°C° 0 mm 1 mps 583 mmHg 85%
    05:00 +8°C° 0 mm 1 mps 583 mmHg 85%
    06:00 +10°C° 0 mm 1 mps 584 mmHg 80%
    07:00 +11°C° 0 mm 1 mps 585 mmHg 75%
    08:00 +13°C° 0 mm 1 mps 586 mmHg 69%
    09:00 +14°C° 0 mm 2 mps 587 mmHg 65%
    10:00 +16°C° 0 mm 2 mps 587 mmHg 61%
    11:00 +17°C° 0 mm 2 mps 587 mmHg 57%
    12:00 +17°C° 0 mm 2 mps 586 mmHg 59%
    13:00 +17°C° 0 mm 3 mps 585 mmHg 61%
    14:00 +16°C° 0 mm 3 mps 584 mmHg 63%
    15:00 +15°C° 0.1 mm 2 mps 584 mmHg 68%
    16:00 +14°C° 0.1 mm 2 mps 584 mmHg 74%
    17:00 +12°C° 0.1 mm 2 mps 583 mmHg 80%
    18:00 +12°C° 0 mm 2 mps 583 mmHg 80%
    19:00 +12°C° 0 mm 1 mps 583 mmHg 80%
    20:00 +11°C° 0 mm 1 mps 584 mmHg 80%
    21:00 +11°C° 0 mm 1 mps 583 mmHg 78%
    22:00 +10°C° 0 mm 2 mps 583 mmHg 77%
    23:00 +10°C° 0 mm 2 mps 583 mmHg 75%

    19 December, Wednesday

    Time Temperature Precipitation Wind Pressure Humidity
    00:00 +9°C° 0 mm 2 mps 582 mmHg 77%
    01:00 +9°C° 0 mm 2 mps 582 mmHg 78%
    02:00 +9°C° 0 mm 2 mps 582 mmHg 80%
    03:00 +9°C° 0 mm 2 mps 582 mmHg 81%
    04:00 +9°C° 0 mm 2 mps 582 mmHg 81%
    05:00 +9°C° 0 mm 2 mps 582 mmHg 81%
    06:00 +10°C° 0 mm 2 mps 583 mmHg 78%
    07:00 +12°C° 0 mm 2 mps 583 mmHg 75%
    08:00 +13°C° 0 mm 2 mps 584 mmHg 71%
    09:00 +14°C° 0.1 mm 2 mps 584 mmHg 66%
    10:00 +15°C° 0.1 mm 2 mps 585 mmHg 61%
    11:00 +17°C° 0.1 mm 3 mps 585 mmHg 56%
    12:00 +16°C° 0.8 mm 3 mps 584 mmHg 59%
    13:00 +15°C° 0.8 mm 4 mps 583 mmHg 62%
    14:00 +14°C° 0.8 mm 4 mps 582 mmHg 66%
    15:00 +13°C° 0.6 mm 4 mps 582 mmHg 70%
    16:00 +12°C° 0.6 mm 3 mps 582 mmHg 75%
    17:00 +12°C° 0.6 mm 2 mps 582 mmHg 80%
    18:00 +10°C° 0.1 mm 2 mps 582 mmHg 81%
    19:00 +11°C° 0.1 mm 1 mps 583 mmHg 83%
    20:00 +10°C° 0.1 mm 1 mps 583 mmHg 85%
    21:00 +10°C° 0.1 mm 1 mps 583 mmHg 85%
    22:00 +10°C° 0.1 mm 1 mps 583 mmHg 85%
    23:00 +9°C° 0.1 mm 1 mps 583 mmHg 85%

    20 December, Thursday

    Time Temperature Precipitation Wind Pressure Humidity
    00:00 +9°C° 0.2 mm 1 mps 582 mmHg 87%
    01:00 +9°C° 0.2 mm 1 mps 582 mmHg 88%
    02:00 +8°C° 0.2 mm 1 mps 582 mmHg 90%
    03:00 +8°C° 0.3 mm 1 mps 582 mmHg 91%
    04:00 +8°C° 0.3 mm 1 mps 583 mmHg 92%
    05:00 +8°C° 0.3 mm 1 mps 583 mmHg 92%
    06:00 +9°C° 0.1 mm 1 mps 584 mmHg 90%
    07:00 +9°C° 0.1 mm 1 mps 585 mmHg 88%
    08:00 +9°C° 0.1 mm 1 mps 585 mmHg 86%
    09:00 +9°C° 0.1 mm 2 mps 586 mmHg 81%
    10:00 +10°C° 0.1 mm 2 mps 586 mmHg 75%
    11:00 +12°C° 0.1 mm 2 mps 586 mmHg 69%
    12:00 +12°C° 0 mm 2 mps 586 mmHg 67%
    13:00 +12°C° 0 mm 2 mps 585 mmHg 65%
    14:00 +13°C° 0 mm 2 mps 585 mmHg 63%
    15:00 +12°C° 0 mm 2 mps 585 mmHg 70%
    16:00 +9°C° 0 mm 2 mps 585 mmHg 76%
    17:00 +8°C° 0 mm 2 mps 584 mmHg 83%
    18:00 +9°C° 0 mm 1 mps 585 mmHg 84%
    19:00 +8°C° 0 mm 1 mps 585 mmHg 85%
    20:00 +8°C° 0 mm 1 mps 585 mmHg 86%
    21:00 +7°C° 0 mm 1 mps 585 mmHg 85%
    22:00 +6°C° 0 mm 1 mps 584 mmHg 85%
    23:00 +6°C° 0 mm 1 mps 584 mmHg 84%

    21 December, Friday

    Time Temperature Precipitation Wind Pressure Humidity
    00:00 +4°C° 0 mm 2 mps 584 mmHg 81%
    01:00 +4°C° 0 mm 2 mps 584 mmHg 77%
    02:00 +4°C° 0 mm 2 mps 583 mmHg 74%
    03:00 +3°C° 0 mm 2 mps 583 mmHg 68%
    04:00 +3°C° 0 mm 2 mps 584 mmHg 63%
    05:00 +3°C° 0 mm 2 mps 584 mmHg 58%
    06:00 +5°C° 0 mm 2 mps 585 mmHg 52%
    07:00 +6°C° 0 mm 2 mps 586 mmHg 46%
    08:00 +9°C° 0 mm 1 mps 587 mmHg 39%
    09:00 +9°C° 0 mm 2 mps 588 mmHg 36%
    10:00 +12°C° 0 mm 2 mps 588 mmHg 33%
    11:00 +12°C° 0 mm 3 mps 588 mmHg 29%
    12:00 +12°C° 0 mm 3 mps 588 mmHg 31%
    13:00 +12°C° 0 mm 3 mps 587 mmHg 34%
    14:00 +12°C° 0 mm 3 mps 587 mmHg 36%
    15:00 +10°C° 0 mm 2 mps 586 mmHg 46%
    16:00 +8°C° 0 mm 2 mps 585 mmHg 56%
    17:00 +7°C° 0 mm 1 mps 584 mmHg 66%
    18:00 +7°C° 0 mm 1 mps 585 mmHg 67%
    19:00 +6°C° 0 mm 1 mps 585 mmHg 68%
    20:00 +5°C° 0 mm 2 mps 585 mmHg 68%
    21:00 +5°C° 0 mm 2 mps 585 mmHg 67%
    22:00 +4°C° 0 mm 2 mps 584 mmHg 65%
    23:00 +4°C° 0 mm 2 mps 584 mmHg 64%
    Show more